Russellville, AR

1:14 AM CDT on August 20, 2017 (GMT -0500)
Russellville Regional

Weather History for KRUE - November, 2013

Change the Weather History Date:

Saturday, November 16, 2013

  Actual Average (KHOT) Record (KHOT)
Temperature  
Mean Temperature 64 °F -  
Max Temperature 72 °F 63 °F 82 °F (1965)
Min Temperature 55 °F 39 °F 24 °F (1997)
Degree Days  
Heating Degree Days 2    
Growing Degree Days 14 (Base 50)    
Moisture  
Dew Point 59 °F    
Average Humidity 80    
Maximum Humidity 90    
Minimum Humidity 63    
Precipitation  
Precipitation 0.00 in - - ()
Sea Level Pressure  
Sea Level Pressure 29.81 in    
Wind  
Wind Speed 4 mph (SSE)    
Max Wind Speed 10 mph    
Max Gust Speed 17 mph    
Visibility 10 miles    
Events Rain , Thunderstorm    
Averages and records for this station are not official NWS values.
T = Trace of Precipitation, MM = Missing Value Source: NWS Daily Summary

Daily Weather History Graph

Daily Weather History Graph

Search for Another Location

Airport or City:

Trip Planner

Search our weather history database for the weather conditions in past years. The results will help you decide how hot, cold, wet, or windy it might be!

Date:

Astronomy

Nov. 16, 2013 Rise Set
Actual Time 6:48 AM CST 5:05 PM CST
Civil Twilight 6:21 AM CST 5:32 PM CST
Nautical Twilight 5:50 AM CST 6:03 PM CST
Astronomical Twilight 5:20 AM CST 6:33 PM CST
Moon 4:39 PM CST (11/16) 5:47 AM CST (11/16)
Length of Visible Light 11h 11m
Length of Day
10h 16m
Waxing Gibbous, 99% of the Moon is Illuminated
Nov 16
Waxing Gibbous
Nov 17
Full
Nov 25
Last Quarter
Dec 2
New
Dec 9
First Quarter

Hourly Weather History & Observations

Time (CST) Temp. Dew Point Humidity Pressure Visibility Wind Dir Wind Speed Gust Speed Precip Events Conditions
12:53 AM 55.9 °F 52.0 °F 87% 29.94 in 10.0 mi Variable 3.5 mph - N/A   Overcast
1:24 AM 55.4 °F 51.8 °F 88% 29.93 in 10.0 mi Variable 3.5 mph - N/A   Mostly Cloudy
1:53 AM 55.0 °F 51.1 °F 86% 29.92 in 10.0 mi Calm Calm - N/A   Mostly Cloudy
2:53 AM 55.9 °F 53.1 °F 90% 29.92 in 10.0 mi Calm Calm - N/A   Overcast
3:11 AM 57.2 °F 53.6 °F 88% 29.93 in 10.0 mi Calm Calm - N/A   Overcast
3:53 AM 57.0 °F 53.1 °F 87% 29.91 in 10.0 mi Calm Calm - N/A   Overcast
4:53 AM 57.0 °F 53.1 °F 87% 29.91 in 10.0 mi Calm Calm - N/A   Overcast
5:53 AM 55.9 °F 53.1 °F 90% 29.90 in 10.0 mi Calm Calm - N/A   Overcast
6:53 AM 57.9 °F 55.0 °F 90% 29.89 in 10.0 mi Variable 3.5 mph - N/A   Overcast
7:53 AM 60.1 °F 55.9 °F 86% 29.89 in 10.0 mi East 6.9 mph - N/A   Overcast
8:53 AM 61.0 °F 57.0 °F 87% 29.88 in 8.0 mi Variable 5.8 mph - N/A   Overcast
9:53 AM 64.9 °F 59.0 °F 81% 29.89 in 10.0 mi South 6.9 mph - N/A   Overcast
10:53 AM 64.9 °F 59.0 °F 81% 29.87 in 10.0 mi Variable 5.8 mph - N/A   Overcast
11:53 AM 69.1 °F 59.0 °F 70% 29.84 in 10.0 mi Variable 6.9 mph - N/A   Mostly Cloudy
12:35 PM 66.2 °F 59.0 °F 78% 29.83 in 10.0 mi South 6.9 mph - N/A   Overcast
12:53 PM 69.1 °F 59.0 °F 70% 29.80 in 10.0 mi Variable 5.8 mph - N/A   Mostly Cloudy
1:53 PM 71.1 °F 57.9 °F 63% 29.77 in 10.0 mi South 8.1 mph 17.3 mph N/A   Mostly Cloudy
2:53 PM 71.1 °F 57.9 °F 63% 29.75 in 10.0 mi SSE 4.6 mph - N/A   Mostly Cloudy
3:53 PM 70.0 °F 59.0 °F 68% 29.74 in 10.0 mi Variable 3.5 mph - N/A   Overcast
4:22 PM 69.8 °F 59.0 °F 68% 29.75 in 10.0 mi Variable 3.5 mph - N/A   Overcast
4:53 PM 69.1 °F 60.1 °F 73% 29.73 in 10.0 mi Variable 4.6 mph - N/A   Overcast
5:53 PM 69.1 °F 61.0 °F 75% 29.73 in 10.0 mi Calm Calm - 0.00 in   Overcast
6:53 PM 69.1 °F 63.0 °F 81% 29.72 in 10.0 mi SSE 4.6 mph - 0.00 in   Overcast
7:53 PM 71.1 °F 64.0 °F 78% 29.72 in 10.0 mi Variable 6.9 mph - N/A   Mostly Cloudy
8:19 PM 71.6 °F 64.4 °F 78% 29.74 in 10.0 mi South 5.8 mph - N/A   Mostly Cloudy
8:26 PM 71.6 °F 64.4 °F 78% 29.74 in 10.0 mi Variable 4.6 mph - N/A   Overcast
8:53 PM 71.1 °F 64.9 °F 81% 29.73 in 10.0 mi Variable 4.6 mph - N/A   Overcast
9:53 PM 71.1 °F 64.9 °F 81% 29.71 in 10.0 mi South 8.1 mph 17.3 mph N/A   Mostly Cloudy
10:24 PM 71.6 °F 66.2 °F 83% 29.72 in 10.0 mi Variable 6.9 mph - N/A   Overcast
10:53 PM 72.0 °F 66.0 °F 81% 29.70 in 10.0 mi South 10.4 mph 17.3 mph 0.00 in Rain Light Rain
11:43 PM 71.6 °F 66.2 °F 83% 29.71 in 10.0 mi South 8.1 mph - 0.00 in Rain , Thunderstorm Light Rain
11:53 PM 71.1 °F 66.9 °F 87% 29.68 in 3.0 mi Variable 4.6 mph - 0.00 in Rain , Thunderstorm Heavy Thunderstorms and Rain